Weather History for KLBL - May, 2014

Change the Weather History Date:

Monday, May 5, 2014

  Actual Average Record
Temperature  
Mean Temperature 70 °F -  
Max Temperature 89 °F 75 °F 97 °F (1956)
Min Temperature 51 °F 48 °F 32 °F (2013)
Cooling Degree Days 5    
Growing Degree Days 20 (Base 50)    
Moisture  
Dew Point 37 °F    
Average Humidity 29    
Maximum Humidity 46    
Minimum Humidity 18    
Precipitation  
Precipitation 0.00 in - - ()
Sea Level Pressure  
Sea Level Pressure 29.77 in    
Wind  
Wind Speed 13 mph (North)    
Max Wind Speed 17 mph    
Max Gust Speed 23 mph    
Visibility 10 miles    
Events      
Averages and records for this station are not official NWS values.
T = Trace of Precipitation, MM = Missing Value Source: NWS Daily Summary

Daily Weather History Graph

Daily Weather History Graph

Search for Another Location

Airport or City:

Trip Planner

Search our weather history database for the weather conditions in past years. The results will help you decide how hot, cold, wet, or windy it might be!

Date:

Astronomy

May. 05, 2014 Rise Set
Actual Time 6:45 AM CDT 8:36 PM CDT
Civil Twilight 6:16 AM CDT 9:04 PM CDT
Nautical Twilight 5:42 AM CDT 9:39 PM CDT
Astronomical Twilight 5:06 AM CDT 10:15 PM CDT
Moon 12:05 PM CDT (5/5) 1:22 AM CDT (5/5)
Length of Visible Light 14h 48m
Length of Day
13h 51m
Waxing Crescent, 37% of the Moon is Illuminated
May 5
Waxing Crescent
May 6
First Quarter
May 14
Full
May 21
Last Quarter
May 28
New

Hourly Weather History & Observations

Time (CDT) Temp. Dew Point Humidity Pressure Visibility Wind Dir Wind Speed Gust Speed Precip Events Conditions
12:15 AM 66.2 °F 23.0 °F 19% 29.73 in 10.0 mi SW 15.0 mph - N/A   Clear
12:35 AM 66.2 °F 21.2 °F 18% 29.74 in 10.0 mi SW 11.5 mph - N/A   Clear
12:55 AM 66.2 °F 21.2 °F 18% 29.74 in 10.0 mi WSW 16.1 mph - N/A   Clear
1:15 AM 64.4 °F 21.2 °F 19% 29.74 in 10.0 mi WSW 13.8 mph - N/A   Clear
1:35 AM 60.8 °F 24.8 °F 25% 29.74 in 10.0 mi WSW 10.4 mph - N/A   Clear
1:55 AM 60.8 °F 24.8 °F 25% 29.74 in 10.0 mi WSW 11.5 mph - N/A   Clear
2:15 AM 62.6 °F 24.8 °F 24% 29.74 in 10.0 mi West 12.7 mph - N/A   Clear
2:35 AM 62.6 °F 24.8 °F 24% 29.74 in 10.0 mi West 15.0 mph - N/A   Clear
2:55 AM 62.6 °F 24.8 °F 24% 29.73 in 10.0 mi West 16.1 mph - N/A   Clear
3:15 AM 60.8 °F 24.8 °F 25% 29.74 in 10.0 mi West 13.8 mph - N/A   Clear
3:35 AM 57.2 °F 24.8 °F 29% 29.74 in 10.0 mi West 11.5 mph - N/A   Clear
3:55 AM 57.2 °F 26.6 °F 31% 29.74 in 10.0 mi West 9.2 mph - N/A   Clear
4:15 AM 53.6 °F 24.8 °F 33% 29.75 in 10.0 mi West 8.1 mph - N/A   Clear
4:35 AM 51.8 °F 24.8 °F 35% 29.76 in 10.0 mi WNW 4.6 mph - N/A   Clear
4:55 AM 57.2 °F 26.6 °F 31% 29.76 in 10.0 mi West 10.4 mph - N/A   Clear
5:15 AM 55.4 °F 24.8 °F 31% 29.76 in 10.0 mi West 10.4 mph - N/A   Clear
5:35 AM 57.2 °F 24.8 °F 29% 29.76 in 10.0 mi West 10.4 mph - N/A   Clear
5:55 AM 57.2 °F 23.0 °F 27% 29.76 in 10.0 mi West 13.8 mph - N/A   Clear
6:15 AM 57.2 °F 23.0 °F 27% 29.76 in 10.0 mi WNW 15.0 mph - N/A   Clear
6:35 AM 59.0 °F 23.0 °F 25% 29.76 in 10.0 mi West 13.8 mph - N/A   Clear
6:55 AM 59.0 °F 21.2 °F 23% 29.77 in 10.0 mi West 13.8 mph - N/A   Clear
7:15 AM 60.8 °F 21.2 °F 22% 29.78 in 10.0 mi West 13.8 mph - N/A   Clear
7:35 AM 60.8 °F 23.0 °F 23% 29.81 in 10.0 mi NW 16.1 mph 19.6 mph N/A   Clear
7:55 AM 62.6 °F 24.8 °F 24% 29.82 in 10.0 mi NNW 15.0 mph - N/A   Clear
8:15 AM 64.4 °F 26.6 °F 24% 29.82 in 10.0 mi NNW 17.3 mph - N/A   Clear
8:35 AM 62.6 °F 30.2 °F 30% 29.83 in 10.0 mi North 17.3 mph - N/A   Clear
8:55 AM 62.6 °F 35.6 °F 37% 29.83 in 10.0 mi North 17.3 mph - N/A   Clear
9:15 AM 62.6 °F 39.2 °F 42% 29.84 in 10.0 mi North 16.1 mph - N/A   Clear
9:35 AM 64.4 °F 42.8 °F 45% 29.85 in 10.0 mi North 15.0 mph - N/A   Clear
9:55 AM 64.4 °F 42.8 °F 45% 29.86 in 10.0 mi North 13.8 mph - N/A   Clear
10:15 AM 66.2 °F 44.6 °F 46% 29.87 in 10.0 mi North 15.0 mph 19.6 mph N/A   Clear
10:35 AM 68.0 °F 44.6 °F 43% 29.87 in 10.0 mi North 15.0 mph 19.6 mph N/A   Clear
10:55 AM 69.8 °F 44.6 °F 40% 29.88 in 10.0 mi North 11.5 mph 18.4 mph N/A   Clear
11:15 AM 69.8 °F 44.6 °F 40% 29.88 in 10.0 mi North 12.7 mph 19.6 mph N/A   Clear
11:35 AM 71.6 °F 44.6 °F 38% 29.88 in 10.0 mi North 11.5 mph 17.3 mph N/A   Clear
11:55 AM 73.4 °F 46.4 °F 38% 29.87 in 10.0 mi North 10.4 mph - N/A   Clear
12:15 PM 75.2 °F 46.4 °F 36% 29.86 in 10.0 mi North 11.5 mph 18.4 mph N/A   Clear
12:35 PM 75.2 °F 46.4 °F 36% 29.85 in 10.0 mi North 6.9 mph - N/A   Clear
1:15 PM 78.8 °F 46.4 °F 32% 29.84 in 10.0 mi North 6.9 mph - N/A   Clear
1:35 PM 80.6 °F 46.4 °F 30% 29.82 in 10.0 mi North 6.9 mph - N/A   Clear
1:55 PM 82.4 °F 46.4 °F 28% 29.82 in 10.0 mi NE 5.8 mph - N/A   Clear
2:15 PM 82.4 °F 46.4 °F 28% 29.81 in 10.0 mi NNE 5.8 mph 16.1 mph N/A   Clear
2:35 PM 84.2 °F 44.6 °F 25% 29.81 in 10.0 mi NNE 6.9 mph - N/A   Clear
2:55 PM 84.2 °F 44.6 °F 25% 29.80 in 10.0 mi ENE 8.1 mph - N/A   Clear
3:15 PM 84.2 °F 44.6 °F 25% 29.79 in 10.0 mi NE 4.6 mph - N/A   Clear
3:35 PM 87.8 °F 46.4 °F 24% 29.78 in 10.0 mi NE 9.2 mph 19.6 mph N/A   Clear
3:55 PM 87.8 °F 44.6 °F 22% 29.77 in 10.0 mi ENE 10.4 mph - N/A   Clear
4:15 PM 87.8 °F 44.6 °F 22% 29.75 in 10.0 mi NE 8.1 mph - N/A   Clear
4:35 PM 87.8 °F 44.6 °F 22% 29.74 in 10.0 mi ENE 10.4 mph - N/A   Clear
4:55 PM 87.8 °F 42.8 °F 21% 29.73 in 10.0 mi NE 12.7 mph - N/A   Clear
5:15 PM 87.8 °F 42.8 °F 21% 29.73 in 10.0 mi East 9.2 mph - N/A   Clear
5:35 PM 89.6 °F 42.8 °F 20% 29.72 in 10.0 mi East 12.7 mph 16.1 mph N/A   Clear
5:55 PM 87.8 °F 42.8 °F 21% 29.72 in 10.0 mi East 16.1 mph 21.9 mph N/A   Clear
6:15 PM 87.8 °F 42.8 °F 21% 29.71 in 10.0 mi ENE 12.7 mph - N/A   Clear
6:35 PM 86.0 °F 42.8 °F 22% 29.70 in 10.0 mi East 15.0 mph - N/A   Clear
6:55 PM 84.2 °F 42.8 °F 23% 29.70 in 10.0 mi East 13.8 mph - N/A   Clear
7:15 PM 84.2 °F 42.8 °F 23% 29.70 in 10.0 mi ENE 12.7 mph - N/A   Clear
7:35 PM 82.4 °F 42.8 °F 25% 29.70 in 10.0 mi East 11.5 mph 17.3 mph N/A   Clear
7:55 PM 82.4 °F 42.8 °F 25% 29.70 in 10.0 mi ENE 12.7 mph - N/A   Clear
8:15 PM 80.6 °F 42.8 °F 26% 29.70 in 10.0 mi ENE 12.7 mph - N/A   Clear
8:35 PM 80.6 °F 42.8 °F 26% 29.70 in 10.0 mi ENE 12.7 mph - N/A   Clear
8:55 PM 78.8 °F 42.8 °F 28% 29.71 in 10.0 mi ENE 12.7 mph - N/A   Clear
9:15 PM 77.0 °F 44.6 °F 32% 29.71 in 10.0 mi East 13.8 mph - N/A   Clear
9:35 PM 75.2 °F 44.6 °F 34% 29.70 in 10.0 mi East 17.3 mph 20.7 mph N/A   Clear
9:55 PM 73.4 °F 42.8 °F 33% 29.71 in 10.0 mi East 16.1 mph 23.0 mph N/A   Clear
10:15 PM 73.4 °F 44.6 °F 36% 29.71 in 10.0 mi East 16.1 mph - N/A   Clear
10:35 PM 71.6 °F 44.6 °F 38% 29.71 in 10.0 mi East 15.0 mph - N/A   Clear
10:55 PM 69.8 °F 44.6 °F 40% 29.71 in 10.0 mi East 15.0 mph - N/A   Clear
11:15 PM 69.8 °F 44.6 °F 40% 29.72 in 10.0 mi East 13.8 mph - N/A   Clear
11:35 PM 69.8 °F 44.6 °F 40% 29.71 in 10.0 mi East 16.1 mph - N/A   Clear
11:55 PM 68.0 °F 44.6 °F 43% 29.71 in 10.0 mi East 15.0 mph 19.6 mph N/A   Clear